Home   Weather   Nagoya   Past weeks

Flag for Japan Past Weather in Nagoya, Japan — Yesterday and Last 2 Weeks

Now
84 °F

Partly sunny.


Feels Like: 91 °F
Forecast: 78 / 90 °F
Wind: 15 mph from Southeast

Location: Nagoya Airport

Current Time: Jul 21, 2017 at 11:59:17 am

Latest Report: Jul 21, 2017 at 11:30 am


Visibility: N/A

Pressure: 29.92 "Hg

Humidity: 70%

Dew Point: 73 °F

Location of NagoyaLocation

Past Weather in Nagoya — Graph

°F

Nagoya Temperature Yesterday

Maximum temperature yesterday: 84 °F (at 9:00 am)
Minimum temperature yesterday: 77 °F (at 1:00 am)
Average temperature yesterday: 81 °F

High & Low Weather Summary for the Past Weeks

 TemperatureHumidityPressure
High91 °F (Jul 16, 3:30 pm)94% (Jul 10, 3:00 am)29.95 "Hg (Jul 10, 3:00 am)
Low73 °F (Jul 7, 3:30 am)43% (Jul 6, 2:30 pm)29.68 "Hg (Jul 18, 3:30 pm)
Average81 °F78%29.83 "Hg
* Reported Jul 6 10:00 am — Jul 21 10:00 am, Nagoya. Weather by CustomWeather, © 2017

Note: Actual official high and low records may vary slightly from our data, if they occured in-between our weather recording intervals... More about our weather records

Advertising

Nagoya Weather History for the Previous 24 Hours

Scroll right to see more
 ConditionsComfort  
Time TempWeatherWind HumidityBarometerVisibility
10:00 am
Fri, Jul 21
84 °FScattered showers. Broken clouds.17 mph70%29.92 "HgN/A
9:00 am82 °FSprinkles. Broken clouds.15 mph74%29.92 "HgN/A
8:30 am82 °FScattered showers. Broken clouds.15 mph74%29.92 "HgN/A
8:00 am82 °FScattered showers. Broken clouds.15 mph74%29.89 "HgN/A
7:30 am82 °FScattered showers. Scattered clouds.16 mph79%29.89 "HgN/A
7:00 am81 °FScattered clouds.15 mph84%29.89 "HgN/A
6:30 am81 °FScattered clouds.13 mph84%29.89 "HgN/A
6:00 am79 °FScattered showers. Scattered clouds.13 mph89%29.89 "HgN/A
5:30 am79 °FRain showers. Partly sunny.12 mph89%29.89 "Hg4 mi
5:00 am79 °FScattered showers. Partly sunny.12 mph89%29.89 "Hg5 mi
4:30 am79 °FRain showers. Partly cloudy.13 mph89%29.86 "Hg1 mi
4:00 am81 °FSprinkles. Partly cloudy.13 mph84%29.86 "HgN/A
3:00 am81 °FPassing clouds.16 mph79%29.86 "HgN/A
2:30 am81 °FPassing clouds.15 mph79%29.86 "HgN/A
2:00 am81 °FPassing clouds.15 mph79%29.86 "HgN/A
1:30 am81 °FPassing clouds.15 mph79%29.86 "HgN/A
1:00 am81 °FPassing clouds.13 mph84%29.89 "HgN/A
12:30 am79 °FPassing clouds.14 mph89%29.89 "HgN/A
12:00 am81 °FPassing clouds.14 mph84%29.89 "HgN/A
11:30 pm
Thu, Jul 20
81 °FPassing clouds.10 mph84%29.89 "HgN/A
11:00 pm81 °FPassing clouds.8 mph84%29.89 "HgN/A
10:30 pm81 °FPassing clouds.10 mph84%29.89 "HgN/A
10:00 pm81 °FPassing clouds.14 mph84%29.89 "HgN/A
9:00 pm81 °FPassing clouds.10 mph84%29.89 "HgN/A
8:30 pm81 °FPassing clouds.10 mph84%29.86 "HgN/A
8:00 pm81 °FPassing clouds.12 mph84%29.86 "HgN/A
7:30 pm81 °FPassing clouds.10 mph84%29.86 "HgN/A
7:00 pm82 °FPassing clouds.12 mph79%29.83 "HgN/A
6:00 pm82 °FPassing clouds.13 mph74%29.83 "HgN/A
5:30 pm84 °FPassing clouds.12 mph70%29.83 "HgN/A
5:00 pm84 °FPassing clouds.13 mph70%29.83 "HgN/A
4:30 pm84 °FPassing clouds.15 mph74%29.83 "HgN/A
4:00 pm84 °FPassing clouds.16 mph74%29.83 "HgN/A
3:00 pm84 °FPassing clouds.15 mph70%29.83 "HgN/A
2:30 pm84 °FPassing clouds.18 mph74%29.83 "HgN/A
2:00 pm84 °FPassing clouds.18 mph74%29.83 "HgN/A
1:30 pm84 °FPassing clouds.17 mph74%29.83 "HgN/A
1:00 pm84 °FPassing clouds.17 mph74%29.86 "HgN/A
12:30 pm84 °FPassing clouds.16 mph74%29.86 "HgN/A
12:00 pm84 °FPassing clouds.16 mph74%29.86 "HgN/A
11:30 am84 °FPassing clouds.13 mph70%29.86 "HgN/A
11:00 am82 °FPassing clouds.10 mph74%29.89 "HgN/A
Weather by CustomWeather, © 2017

See weather overviewHow to use our weather pages